カタログに戻る

STARLINK-31990

運用中通信VLEO
NORAD 60024·PAYLOAD·🇺🇸 United States

打ち上げ Jun 8, 2024 から Cape Canaveral Space Force Station

Loading…

次のパス (今後24時間)

TLE

最新Source: CelesTrak SupGP

元期: Sep 14, 2026, 20:34 UTC

1 60024C 24111J   26257.85743056  .00033053  00000+0  97694-3 0  2579
2 60024  53.1568 275.9013 0001150  88.4692 173.2066 15.34361734    16

AllMySatでSTARLINK-31990をリアルタイム追跡

Download on the App Store